HULIANWANG DIGUI 12E

Last updated on Mon Oct 20 2025 00:02:08 GMT+0000 (Coordinated Universal Time)

1 65999U 25231E 25292.30870267 -.00000104 00000+0 29511-4 0 9991 2 65999 50.0025 344.5953 0008107 284.2600 75.7404 14.05671161 462
UTC large
Height (km)
Speed (km/s)
/
Latitude / Longitude
Inclination (degrees)
Orbital Period (minutes)
Azimuth
Elevation
Range (km)
Doppler Factor

Next 0 passes for location: London (51.5072 / 0.1276)

Sorry there are no passes over London.